Other Public Products
Issued by NWS Grand Forks, ND

Home | Current Version | Previous Version | Graphics & Text | Print | Product List | Glossary On
Versions: 1 2 3 4 5 6 7 8 9 10 11 12 13 14 15 16 17 18 19 20 21 22 23 24 25 26 27 28 29 30 31 32 33 34 35 36 37 38 39 40 41 42 43 44 45 46 47 48 49 50
000
FPUS83 KFGF 301910
OPUFGF
PRAIRIE TO PINES WEATHER ROUNDUP
NATIONAL WEATHER SERVICE EASTERN NORTH DAKOTA/GRAND FORKS ND
200 PM CDT SAT APR 30 2016

 **SATELLITE DATA USED TO AUGMENT SKY COVER AT AUTOMATED STATIONS**
 *****  WEATHER ACROSS EASTERN NORTH DAKOTA  *****

CITY           SKY/WX    TMP DP  RH WIND       PRES   REMARKS
GRAND FORKS    MOSUNNY   61  30  31 NE20G30   30.22F
GRAND FORKS AF SUNNY     60  28  28 E20G25    30.22F
GRAND CITY NWS NOT AVBL
BUXTON         NOT AVBL
DEVILS LAKE    SUNNY     58  29  33 E20G25    30.25S
FARGO          CLOUDY    62  28  27 NE22G30   30.15F
WAHPETON ARPT  PTCLDY    59  28  31 E13G23    30.13S
$$

 *****  WEATHER ACROSS CENTRAL AND WESTERN NORTH DAKOTA  *****

CITY           SKY/WX    TMP DP  RH WIND       PRES   REMARKS
JAMESTOWN      SUNNY     59  29  31 NE26G35   30.17F
BISMARCK       SUNNY     59  31  34 NE25      30.19F
MINOT          MOSUNNY   64  27  24 NE12G25   30.24F
MINOT AFB      SUNNY     61  28  29 E15G29    30.24S
GARRISON         N/A     59  29  31 E21G28    30.23S
WILLISTON      SUNNY     61  27  27 E18G24    30.26S
DICKINSON      CLOUDY    53  30  41 NE16      30.19R
HETTINGER      MOSUNNY   55  31  39 NE15      30.17F
$$

 *****  OTHER OBSERVATIONS NORTHEAST NORTH DAKOTA  *****

CITY           SKY/WX    TMP DP  RH WIND       PRES   REMARKS
WALHALLA       FAIR      59  30  33 NE18      30.27F
LANGDON        FAIR      59  32  36 NE15G26   30.27F
CAVALIER       FAIR      59  32  36 E15G24    30.26F
GRAFTON        FAIR      59  32  36 NE18G32   30.26F
CANDO          FAIR      59  25  27 NE17G26   30.28S
FORT TOTTEN      N/A     58  28  31 E10       29.95
ROLLA          FAIR      57  27  30 E15G22    30.28S
RUGBY          FAIR      59  28  31 E17G30    30.25S
 ***** THE ABOVE OBSERVATIONS ARE NON NWS ARE NOT QUALITY
        CONTROLLED AND MAY MIS-REPORT RAIN FOR SNOW...
$$

 *****  OTHER OBSERVATIONS SOUTHEAST NORTH DAKOTA *****

CITY           SKY/WX    TMP DP  RH WIND       PRES   REMARKS
COOPERSTOWN    NOT AVBL
VALLEY CITY    FAIR      57  30  35 E26G32    30.18F
OAKES            N/A    N/A N/A N/A MISG        N/A
GWINNER        FAIR      59  32  36 NE18G31   30.13F
SHEYENNE NWR     N/A     60  30  32 E16       29.95S
BUFFALO        NOT AVBL
WYNDMERE         N/A     61  32  33 E17         N/A
 ***** THE ABOVE OBSERVATIONS ARE NON NWS ARE NOT QUALITY
       CONTROLLED AND MAY MIS-REPORT RAIN FOR SNOW...
$$

  *****  WEATHER ACROSS NORTHERN MINNESOTA  *****

CITY           SKY/WX    TMP DP  RH WIND       PRES   REMARKS
FLAG ISLAND    SUNNY     52  25  35 NE15G24   30.28F
WARROAD        SUNNY     52  32  46 NE14G22   30.29F
ROSEAU         SUNNY     55  34  44 E17G26    30.27F
HALLOCK        SUNNY     61  27  27 NE17G28   30.26S
THF RVR FALLS  SUNNY     57  27  30 NE23      30.23F
HALSTAD        NOT AVBL
FOSSTON        SUNNY     57  27  30 NE17G26   30.20F
BAUDETTE       SUNNY     56  25  30 NE15G28   30.26F
WASKISH        SUNNY     55  30  38 NE15G24   30.23S
CROOKSTON      SUNNY     61  27  27 E17G29      N/A
$$
  *****  WEATHER ACROSS CENTRAL AND WEST MINNESOTA  *****

CITY           SKY/WX    TMP DP  RH WIND       PRES   REMARKS
BEMIDJI        SUNNY     57  28  33 E16G23    30.18F
PARK RAPIDS    CLOUDY    56  26  31 NE17G25   30.15F
WADENA         MOSUNNY   57  30  35 NE15G25   30.12F
DETROIT LAKES  PTSUNNY   55  28  35 E21G28    30.15F
MOORHEAD       CLOUDY    61  28  29 NE16G29   30.16S
FERGUS FALLS   CLOUDY    57  30  35 E17G24    30.10F
ELBOW LAKE     FAIR      54  34  46 NE17G24   30.11F
MORRIS MN      CLOUDY    55  37  50 E20G28    30.08F
STAPLES        PTSUNNY   55  28  35 E8G22     30.13F
WHEATON        CLOUDY    61  37  41 E20G29    30.11F
$$
  *****  WEATHER ELSEWHERE ACROSS MINNESOTA  *****

CITY           SKY/WX    TMP DP  RH WIND       PRES   REMARKS
DULUTH         MOSUNNY   48  30  49 E22G35    30.22S
INTRNTL FALLS  SUNNY     53  27  36 NE7G21    30.25F
ELY            PTSUNNY   52  25  35 NE13G20   30.22F
CLOQUET        SUNNY     48  25  40 E16G31    30.20F
BRAINERD       PTSUNNY   55  31  39 NE17      30.14F
HIBBING        SUNNY     54  27  35 NE13G22   30.19F
ALEXANDRIA     CLOUDY    56  33  42 E23       30.10F
SAINT CLOUD    CLOUDY    55  32  41 NE15G25   30.09F
MINNEAPOLIS    CLOUDY    57  33  40 NE21G29   30.05F
$$

  *****  WEATHER ACROSS SOUTH DAKOTA  *****

CITY           SKY/WX    TMP DP  RH WIND       PRES   REMARKS
SIOUX FALLS    LGT RAIN  44  41  89 NE29G37   29.90F FOG
BROOKINGS      CLOUDY    46  36  68 E21G35    29.97S
WATERTOWN      CLOUDY    51  35  54 NE23G36   30.01F
HURON          CLOUDY    50  37  61 NE22G31   29.99F
SISSETON         N/A     57  34  41 E20       30.08F
ABERDEEN       PTSUNNY   58  35  42 NE25G32   30.08F
MITCHELL       LGT RAIN  45  40  82 NE25      29.94F
PIERRE         PTSUNNY   53  34  48 NE28G37   30.02S
MOBRIDGE       CLOUDY    58  33  39 NE26      30.09F
RAPID CITY     CLOUDY    47  37  68 NE20G26   30.08F
$$

  *****  SOME WEATHER IN NEARBY STATES *****

CITY           SKY/WX    TMP DP  RH WIND       PRES   REMARKS
GLASGOW MT     SUNNY     59  29  31 E13G24    30.25S
GREAT FALLS MT CLOUDY    52  36  54 NE8       30.21S
CHEYENNE WY    LGT SNOW  32  29  88 N18G31    29.98S VSB 3/4 WCI  20
SCOTTSBLUFF NE LGT RAIN  38  35  89 N20G29    29.99R
OMAHA NE       DRIZZLE   49  47  93 E9        29.74R FOG
DES MOINES IA  LGT RAIN  50  46  86 E15       29.77S FOG
DAVENPORT IA   HVY RAIN  48  46  93 E21G29    29.83R FOG
CHICAGO IL     LGT RAIN  45  42  89 E18G29    29.95F FOG
EAU CLAIRE WI  CLOUDY    58  32  37 E18G29    30.06S
LA CROSSE WI   CLOUDY    52  36  54 E10       30.01F
$$

  *****  SOME NATIONAL WEATHER *****

CITY           SKY/WX    TMP DP  RH WIND       PRES   REMARKS
LA GUARDIA NY  PTSUNNY   62  31  31 VRB6G16   30.20R
RALEIGH NC     CLOUDY    64  56  75 E8        30.14S
ATLANTA GA     CLOUDY    79  64  60 SW7       29.95F
NEW ORLEANS LA CLOUDY    80  72  76 SE13      29.81F
OKLAHOMA CITY  MOSUNNY   66  50  56 NW10G21   29.81F
ALBUQUERQUE NM CLOUDY    58  34  40 NW13      29.85F
SALT LAKE CITY PTSUNNY   61  32  33 N16G23    29.92F
LOS ANGELES CA MOSUNNY   63  49  60 W15       29.83F
BOISE ID       MOSUNNY   65  37  35 NW18G26   30.02F
SEATTLE WA     PTSUNNY   59  47  64 W7        30.37S
$$

*** WEATHER ACROSS MANITOBA...SASKATCHEWAN AND ONTARIO ***
                ***ONTARIO***

CITY           SKY/WX    TMP DP  RH WIND       PRES   REMARKS
GERALDTON      PTSUNNY   46  27  46 NE9       30.32F
THUNDER BAY    PTSUNNY   50  28  43 NE13      30.29F
SIOUX LOOKOUT  MOSUNNY   52  25  35 N6G17     30.30F
TORONTO        PTSUNNY   57  28  33 E12       30.16F
BIG TROUT LK   SUNNY     43  27  52 S6        30.40F
PICKLE LAKE    MOSUNNY   45  25  45 N7        30.35F
DRYDEN         SUNNY     52  23  32 NE14G20   30.29F
KENORA         SUNNY     55  25  30 NE13G18   30.30F
$$
                *** MANITOBA***

CITY           SKY/WX    TMP DP  RH WIND       PRES   REMARKS
BRANDON        MOSUNNY   61  27  27 E17G28    30.32F
DAUPHIN        SUNNY     61  27  27 E13G20    30.37F
ISLAND LAKE    MOSUNNY   59  25  27 E3        30.36F
PILOT MOUND    NOT AVBL
THE PAS        PTSUNNY   64  25  22 N3        30.36F
THOMPSON       NOT AVBL
WINNIPEG       SUNNY     59  28  31 NE15G25   30.31F
LYNN LAKE      SUNNY     66  25  20 SW12G21   30.27F
CHURCHILL      MOSUNNY   37  23  56 SE13      30.44F
GILLAM         PTSUNNY   54  25  32 VRB9      30.38F
$$
                ***SASKATCHEWAN***

CITY           SKY/WX    TMP DP  RH WIND       PRES   REMARKS
ESTEVAN        MOSUNNY   61  27  27 E14G22    30.28F
KINDERSLEY     PTSUNNY   59  30  33 SW10      30.28S
LLOYDMINSTER   PTSUNNY   61  32  33 S12       30.25S
PRINCE ALBERT  NOT AVBL
REGINA         MOSUNNY   63  23  22 E12G21    30.30F
YORKTON        SUNNY     63  27  25 SE14G22   30.35F   C1F1C2F2C3F3C4F4C5F5C6F6C7F7C8F8C9F9CaFaCbFbCcFcCdFdCe!


USA.gov is the U.S. government's official web portal to all federal, state and local government web resources and services.